Météo par heure à Alost

Ce jour, 15 Avril, Jeudi

Heure Température Précipitation Vent Pression Humidité
00:00 0°C° 0 mm 3 m/s 771 mmHg 85%
01:00 +1°C° 0 mm 2 m/s 771 mmHg 87%
02:00 +1°C° 0 mm 2 m/s 771 mmHg 88%
03:00 +1°C° 0 mm 2 m/s 771 mmHg 89%
04:00 +1°C° 0 mm 2 m/s 771 mmHg 88%
05:00 +3°C° 0 mm 1 m/s 771 mmHg 87%
06:00 +3°C° 0 mm 1 m/s 771 mmHg 86%
07:00 +4°C° 0.1 mm 2 m/s 771 mmHg 80%
08:00 +5°C° 0.1 mm 2 m/s 771 mmHg 75%
09:00 +6°C° 0.1 mm 2 m/s 771 mmHg 69%
10:00 +7°C° 0.1 mm 3 m/s 771 mmHg 61%
11:00 +8°C° 0.1 mm 3 m/s 770 mmHg 53%
12:00 +9°C° 0.1 mm 3 m/s 770 mmHg 46%
13:00 +8°C° 0 mm 4 m/s 770 mmHg 46%
14:00 +8°C° 0 mm 4 m/s 770 mmHg 47%
15:00 +8°C° 0 mm 4 m/s 769 mmHg 48%
16:00 +7°C° 0 mm 4 m/s 770 mmHg 52%
17:00 +6°C° 0 mm 4 m/s 770 mmHg 56%
18:00 +5°C° 0 mm 3 m/s 770 mmHg 60%
19:00 +5°C° 0 mm 3 m/s 770 mmHg 63%
20:00 +4°C° 0 mm 3 m/s 770 mmHg 65%
21:00 +3°C° 0 mm 3 m/s 770 mmHg 68%
22:00 +2°C° 0 mm 3 m/s 770 mmHg 72%
23:00 +2°C° 0 mm 3 m/s 770 mmHg 75%

Demain, 16 Avril, Vendredi

Heure Température Précipitation Vent Pression Humidité
00:00 +1°C° 0 mm 3 m/s 770 mmHg 79%
01:00 +1°C° 0 mm 3 m/s 770 mmHg 81%
02:00 0°C° 0 mm 3 m/s 770 mmHg 82%
03:00 +1°C° 0 mm 2 m/s 770 mmHg 83%
04:00 +1°C° 0 mm 2 m/s 770 mmHg 82%
05:00 +2°C° 0 mm 2 m/s 770 mmHg 81%
06:00 +2°C° 0 mm 2 m/s 770 mmHg 81%
07:00 +3°C° 0 mm 3 m/s 770 mmHg 72%
08:00 +5°C° 0 mm 4 m/s 770 mmHg 63%
09:00 +6°C° 0 mm 4 m/s 770 mmHg 55%
10:00 +7°C° 0 mm 5 m/s 770 mmHg 51%
11:00 +8°C° 0 mm 5 m/s 769 mmHg 46%
12:00 +10°C° 0 mm 5 m/s 769 mmHg 42%
13:00 +9°C° 0 mm 5 m/s 769 mmHg 44%
14:00 +9°C° 0 mm 5 m/s 768 mmHg 47%
15:00 +9°C° 0 mm 5 m/s 768 mmHg 49%
16:00 +10°C° 0 mm 4 m/s 768 mmHg 54%
17:00 +8°C° 0 mm 4 m/s 768 mmHg 59%
18:00 +7°C° 0 mm 4 m/s 768 mmHg 64%
19:00 +6°C° 0 mm 4 m/s 768 mmHg 67%
20:00 +5°C° 0 mm 4 m/s 768 mmHg 71%
21:00 +5°C° 0 mm 4 m/s 769 mmHg 74%
22:00 +4°C° 0 mm 3 m/s 769 mmHg 76%
23:00 +3°C° 0 mm 3 m/s 768 mmHg 78%

Après-demain, 17 Avril, Samedi

Heure Température Précipitation Vent Pression Humidité
00:00 +2°C° 0 mm 3 m/s 768 mmHg 80%
01:00 +2°C° 0 mm 3 m/s 768 mmHg 81%
02:00 +2°C° 0 mm 3 m/s 768 mmHg 82%
03:00 +1°C° 0 mm 3 m/s 768 mmHg 82%
04:00 +1°C° 0 mm 3 m/s 768 mmHg 82%
05:00 +3°C° 0 mm 2 m/s 768 mmHg 81%
06:00 +3°C° 0 mm 2 m/s 768 mmHg 80%
07:00 +4°C° 0 mm 3 m/s 768 mmHg 71%
08:00 +7°C° 0 mm 3 m/s 768 mmHg 62%
09:00 +8°C° 0 mm 4 m/s 768 mmHg 53%
10:00 +10°C° 0 mm 4 m/s 768 mmHg 50%
11:00 +11°C° 0 mm 4 m/s 767 mmHg 46%
12:00 +12°C° 0 mm 4 m/s 767 mmHg 43%
13:00 +12°C° 0 mm 4 m/s 767 mmHg 44%
14:00 +12°C° 0 mm 4 m/s 766 mmHg 46%
15:00 +12°C° 0 mm 5 m/s 766 mmHg 48%
16:00 +10°C° 0 mm 5 m/s 766 mmHg 53%
17:00 +9°C° 0 mm 5 m/s 766 mmHg 59%
18:00 +7°C° 0 mm 4 m/s 766 mmHg 64%
19:00 +6°C° 0 mm 4 m/s 766 mmHg 69%
20:00 +5°C° 0 mm 3 m/s 767 mmHg 75%
21:00 +4°C° 0 mm 3 m/s 767 mmHg 80%
22:00 +5°C° 0 mm 2 m/s 767 mmHg 80%
23:00 +5°C° 0 mm 2 m/s 766 mmHg 81%

18 Avril, Dimanche

Heure Température Précipitation Vent Pression Humidité
00:00 +4°C° 0 mm 2 m/s 766 mmHg 81%
01:00 +4°C° 0 mm 2 m/s 766 mmHg 82%
02:00 +4°C° 0 mm 2 m/s 766 mmHg 82%
03:00 +4°C° 0 mm 2 m/s 766 mmHg 83%
04:00 +5°C° 0 mm 1 m/s 766 mmHg 82%
05:00 +6°C° 0 mm 1 m/s 766 mmHg 81%
06:00 +6°C° 0 mm 1 m/s 766 mmHg 81%
07:00 +7°C° 0 mm 1 m/s 766 mmHg 75%
08:00 +8°C° 0 mm 1 m/s 766 mmHg 69%
09:00 +9°C° 0 mm 2 m/s 766 mmHg 63%
10:00 +9°C° 0 mm 2 m/s 765 mmHg 59%
11:00 +10°C° 0 mm 2 m/s 765 mmHg 55%
12:00 +12°C° 0 mm 2 m/s 765 mmHg 51%
13:00 +12°C° 0 mm 2 m/s 764 mmHg 50%
14:00 +12°C° 0 mm 2 m/s 764 mmHg 48%
15:00 +11°C° 0 mm 3 m/s 764 mmHg 47%
16:00 +10°C° 0 mm 3 m/s 764 mmHg 52%
17:00 +9°C° 0 mm 3 m/s 764 mmHg 56%
18:00 +8°C° 0 mm 2 m/s 764 mmHg 61%
19:00 +7°C° 0 mm 2 m/s 764 mmHg 65%
20:00 +6°C° 0 mm 2 m/s 764 mmHg 69%
21:00 +4°C° 0 mm 2 m/s 764 mmHg 72%
22:00 +4°C° 0 mm 2 m/s 764 mmHg 74%
23:00 +4°C° 0 mm 1 m/s 764 mmHg 75%

19 Avril, Lundi

Heure Température Précipitation Vent Pression Humidité
00:00 +4°C° 0 mm 1 m/s 764 mmHg 76%
01:00 +4°C° 0 mm 1 m/s 764 mmHg 77%
02:00 +3°C° 0 mm 1 m/s 763 mmHg 78%
03:00 +2°C° 0 mm 0 m/s 763 mmHg 79%
04:00 +3°C° 0 mm 0 m/s 763 mmHg 78%
05:00 +3°C° 0 mm 0 m/s 763 mmHg 77%
06:00 +4°C° 0 mm 0 m/s 763 mmHg 77%
07:00 +7°C° 0 mm 1 m/s 762 mmHg 73%
08:00 +9°C° 0 mm 1 m/s 762 mmHg 69%
09:00 +11°C° 0 mm 1 m/s 762 mmHg 65%
10:00 +12°C° 0 mm 1 m/s 762 mmHg 60%
11:00 +13°C° 0 mm 1 m/s 761 mmHg 55%
12:00 +14°C° 0 mm 1 m/s 761 mmHg 50%
13:00 +14°C° 0 mm 1 m/s 760 mmHg 52%
14:00 +14°C° 0 mm 1 m/s 760 mmHg 53%
15:00 +14°C° 0 mm 1 m/s 760 mmHg 54%
16:00 +13°C° 0 mm 1 m/s 759 mmHg 58%
17:00 +12°C° 0 mm 2 m/s 759 mmHg 61%
18:00 +12°C° 0 mm 2 m/s 759 mmHg 65%
19:00 +10°C° 0 mm 2 m/s 759 mmHg 67%
20:00 +11°C° 0 mm 1 m/s 759 mmHg 70%
21:00 +10°C° 0 mm 1 m/s 759 mmHg 72%
22:00 +10°C° 0 mm 1 m/s 759 mmHg 72%
23:00 +10°C° 0 mm 1 m/s 759 mmHg 71%

20 Avril, Mardi

Heure Température Précipitation Vent Pression Humidité
00:00 +10°C° 0 mm 1 m/s 758 mmHg 71%
01:00 +10°C° 0 mm 1 m/s 758 mmHg 71%
02:00 +9°C° 0 mm 1 m/s 758 mmHg 71%
03:00 +9°C° 0 mm 1 m/s 758 mmHg 71%
04:00 +9°C° 0 mm 1 m/s 758 mmHg 71%
05:00 +9°C° 0 mm 1 m/s 757 mmHg 72%
06:00 +10°C° 0 mm 1 m/s 757 mmHg 72%
07:00 +11°C° 0 mm 1 m/s 757 mmHg 68%
08:00 +11°C° 0 mm 1 m/s 757 mmHg 63%
09:00 +12°C° 0 mm 1 m/s 757 mmHg 59%
10:00 +13°C° 0 mm 1 m/s 757 mmHg 55%
11:00 +14°C° 0 mm 1 m/s 757 mmHg 52%
12:00 +14°C° 0 mm 1 m/s 757 mmHg 48%
13:00 +14°C° 0 mm 1 m/s 756 mmHg 49%
14:00 +14°C° 0 mm 1 m/s 756 mmHg 50%
15:00 +14°C° 0 mm 1 m/s 756 mmHg 51%
16:00 +14°C° 0 mm 1 m/s 755 mmHg 56%
17:00 +13°C° 0 mm 1 m/s 755 mmHg 61%
18:00 +12°C° 0 mm 1 m/s 755 mmHg 66%
19:00 +11°C° 0 mm 1 m/s 755 mmHg 70%
20:00 +9°C° 0 mm 2 m/s 756 mmHg 74%
21:00 +9°C° 0 mm 2 m/s 756 mmHg 78%
22:00 +8°C° 0.1 mm 2 m/s 756 mmHg 81%
23:00 +8°C° 0.1 mm 2 m/s 756 mmHg 83%
Voir plus

Nous avons besoin de votre consentement

Meteoprog et ses fournisseurs de services peuvent stocker et accéder à des données personnelles telles que des cookies, des identifiants d'appareils ou d'autres technologies similaires sur votre appareil et traiter ces données pour personnaliser le contenu et les publicités, ainsi que pour fournir des fonctionnalités de médias sociaux et analyser le trafic.

  • Stocker et/ou accéder à des informations sur votre appareil

    Des cookies, des identifiants d'appareils ou d'autres informations peuvent être stockés ou accessibles sur votre appareil aux fins indiquées ci-dessus.

  • Annonces et contenus personnalisés, mesure des annonces et des contenus, connaissance de l'audience et développement de produits

    Les annonces et le contenu peuvent être personnalisés en fonction d'un profil. D'autres données peuvent être ajoutées pour mieux personnaliser les annonces et le contenu. Les performances des publicités et du contenu peuvent être mesurées. Il est possible d'obtenir des informations sur le public qui a vu les publicités et le contenu. Ces données peuvent être utilisées pour développer ou améliorer l'expérience de l'utilisateur, les systèmes et les logiciels.

En cliquant sur "J'accepte", vous autorisez l'utilisation de cookies, des identifiants d'appareils, des balises web ou d'autres technologies similaires. Vos paramètres peuvent être modifiés dans le navigateur de votre appareil.

Dans certains cas, des intérêts légitimes peuvent être invoqués plutôt qu'un consentement. Vous pouvez en savoir plus à ce sujet dans notre Politique de confidentialité et de cookies.